Location: ??????????
(42.1626°N, 44.1160°E)
Time: 10:23:07
(UTC+00:00)

Cosmos 2322 - Pass Details

Date: 03 March 2021
Orbit: 842 x 853 km, 71.0° (Epoch: 20 April)

Event Time Altitude Azimuth Distance (km) Brightness Sun altitude
Rises 16:17:47 0° 186° (S) 3,405 6.9 -15.9°
Reaches altitude 10° 16:20:17 10° 181° (S) 2,473 6.1 -16.4°
Maximum altitude 16:25:44 49° 108° (ESE) 1,094 3.9 -17.4°
Drops below altitude 10° 16:31:12 10° 35° (NE) 2,488 5.9 -18.4°
Sets 16:33:44 0° 30° (NNE) 3,427 6.7 -18.9°
